Tracking 19242 objects as of 20-Sep-2018
HD Live streaming from Space Station
objects crossing your sky now

FLOCK 2K 14

Track FLOCK 2K 14 now!
10-day predictions
FLOCK 2K 14 is classified as:


NORAD ID: 42892
Int'l Code: 2017-042BV
Perigee: 451.5 km
Apogee: 470.6 km
Inclination: 97.0 °
Period: 93.7 minutes
Semi major axis: 6832 km
RCS: Unknown
Launch date: July 14, 2017
Source: United States (US)
Launch site: TYURATAM MISSILE AND SPACE COMPLEX (TTMTR)
aabbcc
Your satellite tracking list
Your tracking list is empty




NASA's NSSDC Master Catalog

Two Line Element Set (TLE):
1 42892U 17042BV  18262.71521362  .00001978  00000-0  55906-4 0  9999
2 42892  96.9680 154.5750 0013941 112.5250 247.7473 15.37364233 66166
Source of the keplerian elements: AFSPC